Regional Weather Roundup
Issued by NWS

Home | Current Version | Previous Version | Text Only | Print | Product List | Glossary On
Versions: 1 2 3 4 5 6 7 8 9 10 11 12 13 14 15 16 17 18 19 20 21 22 23 24 25 26 27 28 29 30 31 32 33 34 35 36 37 38 39 40 41 42 43 44 45 46 47 48 49 50
499
ASUS42 KFFC 251210
RWRGA
WEATHER ROUNDUP FOR GEORGIA
NATIONAL WEATHER SERVICE PEACHTREE CITY GA
700 AM EST SAT FEB 25 2017

NOTE: "FAIR" INDICATES FEW OR NO CLOUDS BELOW 12,000 FEET WITH NO
SIGNIFICANT WEATHER AND/OR OBSTRUCTIONS TO VISIBILITY.

* = USE WITH CAUTION. THE STATIONS MARKED WITH AN ASTERISK MAY NOT
REPORT WEATHER SUCH AS PRECIPITATION, FOG, OR THUNDER AND ARE NOT
QUALITY CONTROLLED BY NWS.

THE REMARK "TC" DENOTES TEMPERATURE READING IN DEGREES CELSIUS.

GAZ001>058-251300-
NORTH GEORGIA

CITY           SKY/WX    TMP DP  RH WIND       PRES   REMARKS
ATLANTA        PTCLDY    62  59  90 SW12      29.76S
6HR MIN TEMP:  61; 6HR MAX TEMP:  66;

ATHENS         CLEAR     57  55  93 SW6       29.74S
6HR MIN TEMP:  57; 6HR MAX TEMP:  63;

CHAMBLEE       MOCLDY    62  57  83 SW10      29.75S
6HR MIN TEMP:  61; 6HR MAX TEMP:  67;

PEACHTREE CITY CLOUDY    63  59  87 W8        29.79R
6HR MIN TEMP:  60; 6HR MAX TEMP:  65;

ROME           CLOUDY    55  46  71 W5        29.83R
6HR MIN TEMP:  55; 6HR MAX TEMP:  68; 6HR PCP:  0.22;

WEST ATLANTA   MOCLDY    61  57  87 SW7       29.76R
6HR MIN TEMP:  61; 6HR MAX TEMP:  67;

GAINESVILLE    MOCLDY    61  58  90 SW10      29.76R
6HR MIN TEMP:  61; 6HR MAX TEMP:  65;

CARTERSVILLE   CLOUDY    59  48  67 VRB5      29.81R
6HR MIN TEMP:  59; 6HR MAX TEMP:  68; 6HR PCP: TRACE;



CITY           SKY/WX    TMP DP  RH WIND       PRES   REMARKS
DALTON*        CLOUDY    54  45  71 NW6       29.81R
LAWRENCEVILLE* PTCLDY    61  55  82 SW9       29.75
MARIETTA       LGT RAIN  61  58  90 W16G23    29.77R
KENNESAW*      LGT RAIN  61  55  82 NW12G20   29.78
CANTON*        LGT RAIN  59  54  82 W18G28    29.78R
$$

GAZ059>098-102>109-251300-
CENTRAL GEORGIA

CITY           SKY/WX    TMP DP  RH WIND       PRES   REMARKS
AUGUSTA-BUSH   PTCLDY    63  60  90 S5        29.77S
6HR MIN TEMP:  59; 6HR MAX TEMP:  63;

AUGUSTA-DANIEL MOCLDY    62  58  86 S5        29.78S
6HR MIN TEMP:  62; 6HR MAX TEMP:  64;

COLUMBUS       CLOUDY    60  58  92 W6        29.82R
6HR MIN TEMP:  59; 6HR MAX TEMP:  63;

MACON          MOCLDY    60  56  86 SW6       29.80R
6HR MIN TEMP:  59; 6HR MAX TEMP:  64;

ROBINS AFB     MOCLDY    58  56  92 S7        29.80R


CITY           SKY/WX    TMP DP  RH WIND       PRES   REMARKS
LAGRANGE*      MOCLDY    64  64 100 W7        29.80R
SYLVANIA*      MOCLDY   N/A N/A N/A SW3       29.82R
MILLEDGEVILLE* CLEAR     59  59 100 CALM      29.78S
$$

GAZ099>101-110>166-251300-
SOUTH GEORGIA

CITY           SKY/WX    TMP DP  RH WIND       PRES   REMARKS
SAVANNAH       CLOUDY    62  60  93 SW8       29.83S
6HR MIN TEMP:  57; 6HR MAX TEMP:  62;

VALDOSTA       MOCLDY    60  59  96 VRB3      29.88R
6HR MIN TEMP:  59; 6HR MAX TEMP:  64;

ALMA           CLOUDY    62  61  96 S3        29.84S
6HR MIN TEMP:  60; 6HR MAX TEMP:  64;

ST SIMONS      CLOUDY    62  62 100 W6        29.86R
6HR MIN TEMP:  62; 6HR MAX TEMP:  66;

FT STEWART     CLOUDY    63  62  99 SW8       29.82R
ALBANY         CLOUDY    64  62  93 SW6       29.86R
HUNTER AFB     CLEAR     62  62 100 SW5       29.81S
MOODY AFB      PTCLDY    62  59  91 SW8       29.85S
BRUNSWICK      CLOUDY    63  63 100 CALM      29.86S


CITY           SKY/WX    TMP DP  RH WIND       PRES   REMARKS
BAINBRIDGE*    CLOUDY    63  61  94 SW6       29.86S
MOULTRIE*      CLOUDY    61  59  94 CALM      29.87S
VIDALIA*       MOCLDY    63  63 100 SW6       29.83R
WAYCROSS*      MOCLDY    64  64 100 SW5       29.85S
DOUGLAS*       CLOUDY    61  59  94 SW5       29.87R
$$




USA.gov is the U.S. government's official web portal to all federal, state and local government web resources and services.